Flight Track Log - Related Links

Times and Time Zones

All times are in EDT time to prevent confusion due to time zone crossing. See the AWE1541 flight status page for this flight to view local times or setup timezone preferences in your user account.

Time Position Orientation Groundspeed Altitude Reporting Facility
EDT Latitude Longitude Course Direction KTS MPH feet Rate Location/Type
Thu 11:56:32 AM 35.1892 -80.9508 270° West 184 212 1,800  Level Atlanta Center
Thu 11:57:33 AM 35.1331 -80.9581 186° South 205 236 2,900 1,128 Climbing Atlanta Center
Thu 11:58:29 AM 35.1242 -81.0297 261° West 275 316 4,000 1,600 Climbing Atlanta Center
Thu 11:59:00 AM 35.2642 -81.2020 282° West  Level FlightAware Approximate
Thu 11:59:18 AM 35.1283 -81.1106 274° West 279 321 5,700  Level Atlanta Center
Thu 12:00:00 PM 35.2218 -81.3214 242° Southwest  Level FlightAware Approximate
Thu 12:00:18 PM 35.1469 -81.1939 285° West 300 345 7,400  Level Atlanta Center
Thu 12:01:00 PM 35.1657 -81.4354 239° Southwest  Level FlightAware Approximate
Thu 12:01:18 PM 35.1928 -81.2761 304° West 301 346 9,300  Level Atlanta Center
Thu 12:02:00 PM 35.1334 -81.5572 270° West  Level FlightAware Approximate
Thu 12:02:18 PM 35.1928 -81.3753 270° West 276 318 10,700  Level Atlanta Center
Thu 12:03:18 PM 35.1719 -81.4800 256° West 311 358 11,400 700 Climbing Atlanta Center
Thu 12:04:18 PM 35.1475 -81.6028 256° West 353 406 12,100 1,050 Climbing Atlanta Center
Thu 12:05:18 PM 35.1292 -81.7431 261° West 378 435 13,500 1,350 Climbing Atlanta Center
Thu 12:06:18 PM 35.1192 -81.8806 265° West 399 459 14,800 1,350 Climbing Atlanta Center
Thu 12:07:18 PM 35.1069 -82.0178 264° West 411 473 16,200 1,250 Climbing Atlanta Center
Thu 12:08:18 PM 35.0989 -82.1578 266° West 411 473 17,300 900 Climbing Atlanta Center
Thu 12:09:18 PM 35.0944 -82.2947 268° West 411 473 18,000 850 Climbing Atlanta Center
Thu 12:10:18 PM 35.1319 -82.4311 289° West 411 473 19,000 950 Climbing Atlanta Center
Thu 12:11:18 PM 35.1692 -82.5803 287° West 433 498 19,900 850 Climbing Atlanta Center
Thu 12:12:18 PM 35.2042 -82.7272 286° West 440 506 20,700 800 Climbing Atlanta Center
Thu 12:13:18 PM 35.2433 -82.8739 288° West 451 519 21,500 750 Climbing Atlanta Center
Thu 12:14:18 PM 35.2758 -83.0108 286° West 457 526 22,200 650 Climbing Atlanta Center
Thu 12:15:18 PM 35.3144 -83.1631 287° West 457 526 22,800 650 Climbing Atlanta Center
Thu 12:16:18 PM 35.3572 -83.3283 288° West 457 526 23,500 650 Climbing Atlanta Center
Thu 12:17:18 PM 35.3958 -83.4808 287° West 462 532 24,100 550 Climbing Atlanta Center
Thu 12:18:18 PM 35.4317 -83.6386 286° West 467 537 24,600 600 Climbing Atlanta Center
Thu 12:19:18 PM 35.4719 -83.7939 288° West 473 544 25,300 650 Climbing Atlanta Center
Thu 12:20:18 PM 35.5075 -83.9469 286° West 473 544 25,900 600 Climbing Atlanta Center
Thu 12:21:18 PM 35.5450 -84.1000 287° West 473 544 26,500 600 Climbing Atlanta Center
Thu 12:22:18 PM 35.5803 -84.2481 286° West 468 539 27,100 600 Climbing Atlanta Center
Thu 12:23:18 PM 35.6175 -84.4014 287° West 468 539 27,700 600 Climbing Atlanta Center
Thu 12:24:18 PM 35.6525 -84.5500 286° West 463 533 28,300 600 Climbing Atlanta Center
Thu 12:25:18 PM 35.6872 -84.7008 286° West 463 533 28,900 553 Climbing Atlanta Center
Thu 12:26:50 PM 35.7347 -84.9150 285° West 447 514 29,700 434 Climbing Memphis Center
Thu 12:27:50 PM 35.7706 -85.0661 286° West 452 520 30,000 150 Climbing Memphis Center
Thu 12:28:50 PM 35.8081 -85.2172 287° West 452 520 30,000  Level Memphis Center
Thu 12:29:50 PM 35.8414 -85.3661 285° West 458 527 30,000  Level Memphis Center
Thu 12:30:50 PM 35.8767 -85.5203 286° West 458 527 30,000  Level Memphis Center
Thu 12:31:50 PM 35.9117 -85.6744 286° West 463 533 30,000  Level Memphis Center
Thu 12:32:50 PM 35.9464 -85.8264 286° West 469 540 30,000 50 Level Memphis Center
Thu 12:33:50 PM 35.9811 -85.9783 286° West 469 540 30,100  Climbing Memphis Center
Thu 12:34:50 PM 36.0161 -86.1458 285° West 464 534 30,000 -50 Descending Memphis Center
Thu 12:35:50 PM 36.0503 -86.2981 286° West 464 534 30,000 -50 Level Memphis Center
Thu 12:36:50 PM 36.0844 -86.4506 286° West 464 534 29,900  Descending Memphis Center
Thu 12:37:50 PM 36.1164 -86.6058 284° West 469 540 30,000 100 Climbing Memphis Center
Thu 12:38:50 PM 36.1669 -86.7603 292° West 477 549 30,100 50 Climbing Memphis Center
Thu 12:39:50 PM 36.2317 -86.9144 298° West 484 557 30,100 -50 Level Memphis Center
Thu 12:40:50 PM 36.2978 -87.0481 302° West 501 577 30,000 -50 Descending Memphis Center
Thu 12:41:50 PM 36.3661 -87.1922 301° West 501 577 30,000 -50 Level Memphis Center
Thu 12:42:50 PM 36.4303 -87.3367 299° West 487 560 29,900  Descending Memphis Center
Thu 12:43:50 PM 36.5028 -87.4967 299° West 487 560 30,000 100 Climbing Memphis Center
Thu 12:44:50 PM 36.5667 -87.6417 299° West 487 560 30,100 300 Climbing Memphis Center
Thu 12:45:50 PM 36.6344 -87.7944 299° West 487 560 30,600 500 Climbing Memphis Center
Thu 12:46:50 PM 36.7000 -87.9400 299° West 487 560 31,100 500 Climbing Memphis Center
Thu 12:47:50 PM 36.7631 -88.0856 298° West 487 560 31,600 450 Climbing Memphis Center
Thu 12:48:50 PM 36.8325 -88.2339 300° West 487 560 32,000 200 Climbing Memphis Center
Thu 12:49:50 PM 36.8953 -88.3828 298° West 487 560 32,000  Level Memphis Center
Thu 12:50:50 PM 36.9622 -88.5342 299° West 487 560 32,000  Level Memphis Center
Thu 12:51:50 PM 37.0269 -88.6861 298° West 487 560 32,000  Level Memphis Center
Thu 12:52:50 PM 37.0914 -88.8383 298° West 487 560 32,000  Level Memphis Center
Thu 12:53:50 PM 37.1578 -88.9878 299° West 487 560 32,000  Level Memphis Center
Thu 12:55:05 PM 37.2289 -89.1672 297° West 496 571 32,000  Level Kansas City Center
Thu 12:56:07 PM 37.2922 -89.3172 298° West 492 566 32,000 48 Level Kansas City Center
Thu 12:57:09 PM 37.3567 -89.4686 298° West 492 566 32,100  Climbing Kansas City Center
Thu 12:58:11 PM 37.4197 -89.6197 298° West 490 564 32,000 -49 Descending Kansas City Center
Thu 12:59:12 PM 37.4953 -89.8000 298° West 489 563 32,000  Level Kansas City Center
Thu 01:00:14 PM 37.5581 -89.9522 298° West 489 563 32,000  Level Kansas City Center
Thu 01:01:16 PM 37.6164 -90.0936 298° West 489 563 32,000  Level Kansas City Center
Thu 01:02:18 PM 37.6789 -90.2469 297° West 490 564 32,000  Level Kansas City Center
Thu 01:03:19 PM 37.7431 -90.4025 298° West 495 570 32,000 49 Level Kansas City Center
Thu 01:04:21 PM 37.8186 -90.5872 297° West 493 567 32,100  Climbing Kansas City Center
Thu 01:05:23 PM 37.8811 -90.7397 297° West 489 563 32,000 -48 Descending Kansas City Center
Thu 01:06:25 PM 37.9414 -90.8917 297° West 484 557 32,000  Level Kansas City Center
Thu 01:07:27 PM 38.0025 -91.0425 297° West 481 554 32,000  Level Kansas City Center
Thu 01:08:28 PM 38.0692 -91.2103 297° West 478 550 32,000  Level Kansas City Center
Thu 01:09:30 PM 38.1297 -91.3619 297° West 481 554 32,000  Level Kansas City Center
Thu 01:10:32 PM 38.1903 -91.5150 297° West 485 558 32,000  Level Kansas City Center
Thu 01:11:34 PM 38.2517 -91.6678 297° West 486 559 32,000  Level Kansas City Center
Thu 01:12:35 PM 38.3128 -91.8233 297° West 491 565 32,000  Level Kansas City Center
Thu 01:13:37 PM 38.3728 -91.9769 297° West 489 563 32,000  Level Kansas City Center
Thu 01:14:39 PM 38.4328 -92.1308 296° West 489 563 32,000  Level Kansas City Center
Thu 01:15:41 PM 38.5039 -92.3133 297° West 483 556 32,000  Level Kansas City Center
Thu 01:16:42 PM 38.5614 -92.4625 296° West 476 548 32,000  Level Kansas City Center
Thu 01:17:44 PM 38.6192 -92.6106 297° West 470 541 32,000  Level Kansas City Center
Thu 01:19:00 PM 38.6863 -92.7913 296° West  Level FlightAware Approximate
Thu 01:19:48 PM 38.7336 -92.9136 296° West 473 544 32,000  Level Kansas City Center
Thu 01:20:49 PM 38.7906 -93.0642 296° West 472 543 32,000  Level Kansas City Center
Thu 01:21:51 PM 38.8583 -93.2458 296° West 470 541 32,000  Level Kansas City Center
Thu 01:22:53 PM 38.9147 -93.3983 295° West 473 544 32,000  Level Kansas City Center
Thu 01:23:55 PM 38.9700 -93.5517 295° West 473 544 32,000  Level Kansas City Center
Thu 01:24:56 PM 39.0258 -93.6969 296° West 475 547 32,000  Level Kansas City Center
Thu 01:25:58 PM 39.0881 -93.8644 296° West 466 536 32,000  Level Kansas City Center
Thu 01:27:00 PM 39.1400 -94.0100 295° West 466 536 32,000  Level Kansas City Center
Thu 01:28:02 PM 39.2022 -94.1781 296° West 467 537 32,000 48 Level Kansas City Center
Thu 01:29:04 PM 39.2539 -94.3211 295° West 461 531 32,100  Climbing Kansas City Center
Thu 01:30:05 PM 39.3136 -94.4850 295° West 452 520 32,000 -49 Descending Kansas City Center
Thu 01:31:07 PM 39.3631 -94.6233 295° West 446 513 32,000 -48 Level Kansas City Center
Thu 01:32:09 PM 39.4189 -94.7842 294° West 440 506 31,900  Descending Kansas City Center
Thu 01:33:11 PM 39.4669 -94.9192 295° West 436 502 32,000 48 Climbing Kansas City Center
Thu 01:34:13 PM 39.5150 -95.0561 294° West 439 505 32,000  Level Kansas City Center
Thu 01:35:15 PM 39.5725 -95.2172 295° West 444 511 32,000  Level Kansas City Center
Thu 01:36:16 PM 39.6203 -95.3569 294° West 446 513 32,000  Level Kansas City Center
Thu 01:37:18 PM 39.6772 -95.5203 294° West 447 514 32,000  Level Kansas City Center
Thu 01:38:20 PM 39.7264 -95.6622 294° West 449 517 32,000  Level Kansas City Center
Thu 01:39:22 PM 39.7828 -95.8278 294° West 450 518 32,000  Level Kansas City Center
Thu 01:40:24 PM 39.8317 -95.9683 294° West 447 514 32,000  Level Kansas City Center
Thu 01:41:25 PM 39.8878 -96.1356 294° West 451 519 32,000  Level Kansas City Center
Thu 01:42:27 PM 39.9375 -96.2797 294° West 452 520 32,000  Level Kansas City Center
Thu 01:43:29 PM 39.9872 -96.4283 294° West 448 516 32,000  Level Kansas City Center
Thu 01:44:58 PM 40.0664 -96.6664 294° West 449 517 32,000  Level Minneapolis Center
Thu 01:46:00 PM 40.1161 -96.8161 294° West 450 518 32,000  Level Minneapolis Center
Thu 01:47:02 PM 40.1653 -96.9656 293° West 449 517 32,000  Level Minneapolis Center
Thu 01:48:04 PM 40.2144 -97.1139 294° West 447 514 32,000  Level Minneapolis Center
Thu 01:49:06 PM 40.2636 -97.2642 293° West 446 513 32,000  Level Minneapolis Center
Thu 01:50:07 PM 40.3111 -97.4122 293° West 445 512 32,000  Level Minneapolis Center
Thu 01:51:09 PM 40.3600 -97.5617 293° West 445 512 32,000  Level Minneapolis Center
Thu 01:52:11 PM 40.4175 -97.7422 293° West 446 513 32,000  Level Minneapolis Center
Thu 01:53:13 PM 40.4656 -97.8925 293° West 446 513 32,000  Level Minneapolis Center
Thu 01:54:14 PM 40.5142 -98.0439 293° West 448 516 32,000  Level Minneapolis Center
Thu 01:55:16 PM 40.5678 -98.1931 295° West 449 517 32,000 48 Level Minneapolis Center
Thu 01:56:18 PM 40.6239 -98.3439 296° West 454 522 32,100 48 Climbing Minneapolis Center
Thu 01:57:20 PM 40.6775 -98.4967 295° West 456 525 32,100 -48 Level Minneapolis Center
Thu 01:58:22 PM 40.7303 -98.6489 295° West 456 525 32,000 -49 Descending Minneapolis Center
Thu 01:59:23 PM 40.7828 -98.7969 295° West 452 520 32,000  Level Minneapolis Center
Thu 02:00:25 PM 40.8453 -98.9756 295° West 449 517 32,000  Level Minneapolis Center
Thu 02:01:27 PM 40.8989 -99.1328 294° West 448 516 32,000  Level Minneapolis Center
Thu 02:02:29 PM 40.9525 -99.2833 295° West 449 517 32,000  Level Minneapolis Center
Thu 02:03:31 PM 41.0050 -99.4350 295° West 450 518 32,000  Level Minneapolis Center
Thu 02:04:33 PM 41.0572 -99.5864 295° West 450 518 32,000  Level Minneapolis Center
Thu 02:05:34 PM 41.1092 -99.7381 294° West 451 519 32,000  Level Minneapolis Center
Thu 02:06:36 PM 41.1614 -99.8908 294° West 452 520 32,000  Level Minneapolis Center
Thu 02:07:38 PM 41.2125 -100.0419 294° West 450 518 32,000  Level Minneapolis Center
Thu 02:08:40 PM 41.2636 -100.1947 294° West 451 519 32,000  Level Minneapolis Center
Thu 02:09:41 PM 41.3142 -100.3469 294° West 451 519 32,000  Level Minneapolis Center
Thu 02:11:08 PM 41.3944 -100.5953 293° West 452 520 32,000 40 Level Denver Center
Thu 02:12:10 PM 41.4422 -100.7417 294° West 452 520 32,100  Climbing Denver Center
Thu 02:13:12 PM 41.4978 -100.9117 294° West 450 518 32,000 -48 Descending Denver Center
Thu 02:14:14 PM 41.5456 -101.0558 294° West 446 513 32,000  Level Denver Center
Thu 02:15:15 PM 41.5981 -101.2261 292° West 445 512 32,000  Level Denver Center
Thu 02:16:17 PM 41.6447 -101.3689 294° West 440 506 32,000  Level Denver Center
Thu 02:17:19 PM 41.6978 -101.5350 293° West 436 502 32,000  Level Denver Center
Thu 02:18:21 PM 41.7422 -101.6789 293° West 437 503 32,000 48 Level Denver Center
Thu 02:19:23 PM 41.7878 -101.8208 293° West 437 503 32,100 48 Climbing Denver Center
Thu 02:20:25 PM 41.8389 -101.9889 292° West 436 502 32,100 -48 Level Denver Center
Thu 02:21:27 PM 41.8836 -102.1292 293° West 431 496 32,000 -48 Descending Denver Center
Thu 02:22:29 PM 41.9300 -102.2814 292° West 424 488 32,000  Level Denver Center
Thu 02:23:31 PM 41.9800 -102.4439 293° West 422 486 32,000  Level Denver Center
Thu 02:24:33 PM 42.0233 -102.5856 292° West 427 491 32,000  Level Denver Center
Thu 02:25:34 PM 42.0742 -102.7503 293° West 427 491 32,000  Level Denver Center
Thu 02:26:36 PM 42.1169 -102.8939 292° West 432 497 32,000 48 Level Denver Center
Thu 02:27:38 PM 42.1683 -103.0647 292° West 440 506 32,100 48 Climbing Denver Center
Thu 02:28:40 PM 42.2128 -103.2111 292° West 441 507 32,100 -48 Level Denver Center
Thu 02:29:42 PM 42.2567 -103.3586 292° West 442 509 32,000 -49 Descending Denver Center
Thu 02:30:43 PM 42.3064 -103.5306 291° West 439 505 32,000  Level Denver Center
Thu 02:31:45 PM 42.3497 -103.6783 292° West 440 506 32,000  Level Denver Center
Thu 02:32:47 PM 42.4011 -103.8517 292° West 444 511 32,000 48 Level Denver Center
Thu 02:33:49 PM 42.4436 -104.0006 291° West 443 510 32,100  Climbing Denver Center
Thu 02:34:50 PM 42.4936 -104.1694 292° West 435 501 32,000 -49 Descending Denver Center
Thu 02:35:52 PM 42.5339 -104.3111 291° West 424 488 32,000  Level Denver Center
Thu 02:36:54 PM 42.5814 -104.4739 292° West 418 481 32,000  Level Denver Center
Thu 02:37:56 PM 42.6208 -104.6153 291° West 417 480 32,000  Level Denver Center
Thu 02:38:57 PM 42.6689 -104.7897 291° West 443 510 32,000  Level Denver Center
Thu 02:39:59 PM 42.7097 -104.9367 291° West 438 504 32,000  Level Denver Center
Thu 02:41:01 PM 42.7572 -105.1061 291° West 431 496 32,000  Level Denver Center
Thu 02:42:03 PM 42.7969 -105.2531 290° West 433 498 32,000  Level Denver Center
Thu 02:43:04 PM 42.8431 -105.4236 290° West 430 495 32,000  Level Denver Center
Thu 02:44:06 PM 42.8850 -105.5689 292° West 432 497 32,000 44 Level Denver Center
Thu 02:45:20 PM 42.9244 -105.7175 290° West 435 501 32,100 44 Climbing Denver Center
Thu 02:46:22 PM 42.9781 -105.9178 290° West 441 507 32,100 -49 Level Denver Center
Thu 02:47:23 PM 43.0197 -106.0939 288° West 438 504 32,000 -49 Descending Denver Center
Thu 02:48:25 PM 43.0547 -106.2458 288° West 437 503 32,000  Level Denver Center
Thu 02:49:27 PM 43.0744 -106.4031 280° West 446 513 32,000  Level Denver Center
Thu 02:50:28 PM 43.0383 -106.5869 255° West 447 514 32,000  Level Denver Center
Thu 02:51:30 PM 43.0092 -106.7453 256° West 450 518 32,000  Level Denver Center
Thu 02:52:32 PM 42.9783 -106.9303 257° West 449 517 32,000  Level Denver Center
Thu 02:53:33 PM 43.0042 -107.0828 283° West 433 498 32,000  Level Denver Center
Thu 02:54:35 PM 43.0536 -107.2497 292° West 435 501 32,000  Level Denver Center
Thu 02:55:37 PM 43.0958 -107.4017 291° West 430 495 32,000  Level Denver Center
Thu 02:56:38 PM 43.1411 -107.5558 292° West 435 501 32,000  Level Denver Center
Thu 02:57:40 PM 43.1850 -107.7111 291° West 438 504 32,000  Level Denver Center
Thu 02:59:01 PM 43.2833 -107.8997 306° West 438 504 32,000  Level Salt Lake Center
Thu 03:00:02 PM 43.3628 -108.0256 311° West 437 503 32,000  Level Salt Lake Center
Thu 03:01:04 PM 43.4431 -108.1525 311° West 439 505 32,000  Level Salt Lake Center
Thu 03:02:06 PM 43.5236 -108.2792 311° West 440 506 32,000  Level Salt Lake Center
Thu 03:03:08 PM 43.6044 -108.4053 312° West 438 504 32,000  Level Salt Lake Center
Thu 03:04:09 PM 43.6864 -108.5297 312° West 437 503 32,000  Level Salt Lake Center
Thu 03:05:11 PM 43.7864 -108.6756 314° West 437 503 32,000  Level Salt Lake Center
Thu 03:06:13 PM 43.8828 -108.7728 324° Northwest 430 495 32,000  Level Salt Lake Center
Thu 03:07:15 PM 43.9794 -108.8728 323° Northwest 432 497 32,000  Level Salt Lake Center
Thu 03:08:17 PM 44.0761 -108.9708 324° Northwest 430 495 32,000  Level Salt Lake Center
Thu 03:09:18 PM 44.1708 -109.0733 322° Northwest 432 497 32,000 49 Level Salt Lake Center
Thu 03:10:20 PM 44.2589 -109.1911 316° Northwest 436 502 32,100 48 Climbing Salt Lake Center
Thu 03:11:22 PM 44.3433 -109.3156 314° West 439 505 32,100 -48 Level Salt Lake Center
Thu 03:12:24 PM 44.4311 -109.4733 308° West 436 502 32,000 -49 Descending Salt Lake Center
Thu 03:13:25 PM 44.4883 -109.6122 300° West 430 495 32,000  Level Salt Lake Center
Thu 03:14:27 PM 44.5428 -109.7558 298° West 433 498 32,000  Level Salt Lake Center
Thu 03:15:29 PM 44.5861 -109.9308 289° West 428 493 32,000  Level Salt Lake Center
Thu 03:16:31 PM 44.6242 -110.0853 289° West 437 503 32,000  Level Salt Lake Center
Thu 03:17:32 PM 44.6672 -110.2633 289° West 433 498 32,000  Level Salt Lake Center
Thu 03:18:34 PM 44.7036 -110.4158 289° West 431 496 32,000  Level Salt Lake Center
Thu 03:19:36 PM 44.7456 -110.5942 288° West 431 496 32,000  Level Salt Lake Center
Thu 03:20:38 PM 44.7819 -110.7472 289° West 432 497 32,000  Level Salt Lake Center
Thu 03:21:39 PM 44.8239 -110.9256 288° West 433 498 32,000  Level Salt Lake Center
Thu 03:22:41 PM 44.8589 -111.0781 288° West 430 495 32,000  Level Salt Lake Center
Thu 03:23:43 PM 44.9000 -111.2544 288° West 428 493 32,000  Level Salt Lake Center
Thu 03:24:45 PM 44.9339 -111.4050 288° West 425 489 32,000  Level Salt Lake Center
Thu 03:25:46 PM 44.9739 -111.5806 288° West 424 488 32,000  Level Salt Lake Center
Thu 03:26:48 PM 45.0072 -111.7317 287° West 423 487 32,000  Level Salt Lake Center
Thu 03:27:50 PM 45.0408 -111.8819 288° West 422 486 32,000  Level Salt Lake Center
Thu 03:28:51 PM 45.0797 -112.0603 287° West 425 489 32,000 49 Level Salt Lake Center
Thu 03:29:53 PM 45.1139 -112.2136 288° West 427 491 32,100  Climbing Salt Lake Center
Thu 03:30:55 PM 45.1536 -112.3942 287° West 429 494 32,000 -48 Descending Salt Lake Center
Thu 03:31:57 PM 45.1861 -112.5497 287° West 430 495 32,000  Level Salt Lake Center
Thu 03:32:58 PM 45.2247 -112.7292 287° West 428 493 32,000  Level Salt Lake Center
Thu 03:34:00 PM 45.2572 -112.8828 287° West 425 489 32,000  Level Salt Lake Center
Thu 03:35:02 PM 45.2947 -113.0625 287° West 426 490 32,000  Level Salt Lake Center
Thu 03:36:03 PM 45.3267 -113.2169 286° West 426 490 32,000  Level Salt Lake Center
Thu 03:37:05 PM 45.3600 -113.3775 287° West 426 490 32,000  Level Salt Lake Center
Thu 03:38:07 PM 45.3942 -113.5381 287° West 426 490 32,000  Level Salt Lake Center
Thu 03:39:08 PM 45.4297 -113.7186 286° West 425 489 32,000  Level Salt Lake Center
Thu 03:40:10 PM 45.4611 -113.8733 286° West 425 489 32,000  Level Salt Lake Center
Thu 03:41:12 PM 45.4967 -114.0536 286° West 424 488 32,000  Level Salt Lake Center
Thu 03:42:13 PM 45.5281 -114.2086 286° West 426 490 32,000  Level Salt Lake Center
Thu 03:43:15 PM 45.5597 -114.3642 286° West 427 491 32,000  Level Salt Lake Center
Thu 03:44:16 PM 45.5939 -114.5436 285° West 422 486 32,000  Level Salt Lake Center
Thu 03:45:18 PM 45.6236 -114.7000 285° West 425 489 32,000  Level Salt Lake Center
Thu 03:46:03 PM 45.6511 -114.8336 286° West 429 494 32,000  Level Seattle Center
Thu 03:47:04 PM 45.6806 -114.9878 285° West 424 488 32,000  Level Seattle Center
Thu 03:48:05 PM 45.7144 -115.1711 285° West 426 490 32,000  Level Seattle Center
Thu 03:49:06 PM 45.7444 -115.3286 285° West 428 493 32,000  Level Seattle Center
Thu 03:50:07 PM 45.7736 -115.4864 285° West 430 495 32,000  Level Seattle Center
Thu 03:51:08 PM 45.8036 -115.6514 285° West 429 494 32,000  Level Seattle Center
Thu 03:52:09 PM 45.8333 -115.8147 285° West 426 490 32,000  Level Seattle Center
Thu 03:53:10 PM 45.8625 -115.9761 285° West 423 487 32,000 -49 Level Seattle Center
Thu 03:54:11 PM 45.8922 -116.1372 285° West 419 482 31,900 -49 Descending Seattle Center
Thu 03:55:12 PM 45.9253 -116.3306 284° West 417 480 31,900  Level Seattle Center
Thu 03:56:13 PM 45.9547 -116.4936 285° West 421 484 31,900 49 Level Seattle Center
Thu 03:57:14 PM 45.9825 -116.6567 284° West 420 483 32,000 49 Climbing Seattle Center
Thu 03:58:15 PM 46.0111 -116.8197 284° West 422 486 32,000  Level Seattle Center
Thu 03:59:16 PM 46.0392 -116.9833 284° West 422 486 32,000  Level Seattle Center
Thu 04:00:17 PM 46.0661 -117.1439 284° West 415 478 32,000 -49 Level Seattle Center
Thu 04:01:18 PM 46.0933 -117.3053 284° West 415 478 31,900  Descending Seattle Center
Thu 04:02:19 PM 46.1197 -117.4650 283° West 411 473 32,000  Climbing Seattle Center
Thu 04:03:20 PM 46.1464 -117.6244 284° West 408 470 31,900 -49 Descending Seattle Center
Thu 04:04:21 PM 46.1728 -117.7858 283° West 413 475 31,900 49 Level Seattle Center
Thu 04:05:22 PM 46.1969 -117.9425 283° West 405 466 32,000 49 Climbing Seattle Center
Thu 04:06:23 PM 46.2228 -118.1000 283° West 404 465 32,000  Level Seattle Center
Thu 04:07:24 PM 46.2475 -118.2594 283° West 405 466 32,000 -49 Level Seattle Center
Thu 04:08:25 PM 46.2775 -118.4514 283° West 408 470 31,900  Descending Seattle Center
Thu 04:09:26 PM 46.3025 -118.6128 283° West 411 473 32,000 49 Climbing Seattle Center
Thu 04:10:27 PM 46.3281 -118.7761 283° West 415 478 32,000  Level Seattle Center
Thu 04:11:28 PM 46.3494 -118.9183 282° West 421 484 32,000  Level Seattle Center
Thu 04:12:29 PM 46.3786 -119.1158 282° West 421 484 32,000  Level Seattle Center
Thu 04:13:30 PM 46.4036 -119.2833 282° West 426 490 32,000  Level Seattle Center
Thu 04:14:31 PM 46.4278 -119.4478 282° West 423 487 32,000  Level Seattle Center
Thu 04:15:32 PM 46.4522 -119.6144 282° West 424 488 32,000  Level Seattle Center
Thu 04:16:33 PM 46.4761 -119.7794 282° West 422 486 32,000  Level Seattle Center
Thu 04:17:34 PM 46.4986 -119.9439 281° West 420 483 32,000  Level Seattle Center
Thu 04:18:35 PM 46.5233 -120.1106 282° West 424 488 32,000  Level Seattle Center
Thu 04:19:36 PM 46.5453 -120.2756 281° West 419 482 32,000  Level Seattle Center
Thu 04:20:37 PM 46.5769 -120.4378 299° West 419 482 32,000  Level Seattle Center
Thu 04:21:00 PM 46.5940 -120.5061 299° West  Level FlightAware Approximate
Thu 04:21:38 PM 46.6378 -120.5878 301° West 431 496 32,000  Level Seattle Center
Thu 04:22:39 PM 46.7183 -120.7606 304° West 433 498 30,300 -1,918 Descending Seattle Center
Thu 04:23:40 PM 46.7858 -120.9028 305° West 427 491 28,100 -2,164 Descending Seattle Center
Thu 04:24:41 PM 46.8500 -121.0406 304° West 416 479 25,900 -2,139 Descending Seattle Center
Thu 04:26:00 PM 46.9409 -121.2278 305° West  Level FlightAware Approximate
Thu 04:27:16 PM 47.0133 -121.3883 305° West 383 441 20,400  Level Seattle Center
Thu 04:28:17 PM 47.0700 -121.5097 304° West 366 421 19,100 -1,377 Descending Seattle Center
Thu 04:29:18 PM 47.1250 -121.6258 305° West 339 390 17,600 -1,525 Descending Seattle Center
Thu 04:30:19 PM 47.1764 -121.7375 304° West 331 381 16,000 -1,475 Descending Seattle Center
Thu 04:31:20 PM 47.2300 -121.8578 303° West 323 372 14,600 -1,180 Descending Seattle Center
Thu 04:32:21 PM 47.2781 -121.9653 303° West 315 362 13,600 -942 Descending Seattle Center
Thu 04:33:21 PM 47.3269 -122.0689 305° West 310 357 12,700 -893 Descending Seattle Center
Thu 04:34:22 PM 47.3750 -122.1700 305° West 303 349 11,800 -1,082 Descending Seattle Center
Thu 04:35:23 PM 47.4525 -122.1861 352° North 288 331 10,500 -1,426 Descending Seattle Center
Thu 04:36:24 PM 47.5350 -122.1864 360° North 276 318 8,900 -1,770 Descending Seattle Center
Thu 04:37:25 PM 47.6114 -122.1900 358° North 272 313 6,900 -2,016 Descending Seattle Center
Thu 04:38:26 PM 47.6686 -122.2403 329° Northwest 267 307 4,800 -2,066 Descending Seattle Center

Login

Don't have an account? Register now (free) for customized features, flight alerts, and more!